Tracking 19247 objects as of 24-Sep-2018
HD Live streaming from Space Station
objects crossing your sky now

FENGYUN 1C DEB

Track FENGYUN 1C DEB now!
10-day predictions


NORAD ID: 30565
Int'l Code: 1999-025ALF
Perigee: 797.7 km
Apogee: 1,037.5 km
Inclination: 98.5 °
Period: 103.2 minutes
Semi major axis: 7288 km
RCS: 0.0268 m2 (small)
Launch date: May 10, 1999
Source: People's Republic of China (PRC)
Launch site: Taiyaun Space Center, China (TSC)

Note: This is SATELLITE DEBRIS
aabbcc
Your satellite tracking list
Your tracking list is empty




NASA's NSSDC Master Catalog

Two Line Element Set (TLE):
1 30565U 99025ALF 18266.54322402 +.00000980 +00000-0 +67364-3 0  9995
2 30565 098.4569 294.9375 0164536 193.7946 322.7679 13.95206068590511
Source of the keplerian elements: AFSPC